Regional Weather Roundup
Issued by NWS

Home | Current Version | Previous Version | Text Only | Print | Product List | Glossary Off
Versions: 1 2 3 4 5 6 7 8 9 10 11 12 13 14 15 16 17 18 19 20 21 22 23 24 25 26 27

000
ASUS45 KBOU 222306
RWRCO

WEATHER ROUNDUP FOR COLORADO
NATIONAL WEATHER SERVICE DENVER/BOULDER CO
500 PM MDT TUE APR 22 2014

NOTE: "FAIR" INDICATES FEW OR NO CLOUDS BELOW 12000 FEET WITH NO
SIGNIFICANT WEATHER AND/OR OBSTRUCTIONS TO VISIBILITY.

COZ001>005-013-030-031-230000-
...NORTHWEST COLORADO...

CITY           SKY/WX    TMP DP  RH WIND       PRES   REMARKS
CRAIG          CLOUDY    67  25  20 SW21G31   29.78F
HAYDEN         CLOUDY    64  21  19 SW18G37   29.84F
MEEKER         CLOUDY    67  22  18 SW15G26   29.80F
MOUNT WERNER   NOT AVBL
STEAMBOAT SPGS CLOUDY    60  29  30 SE14G21   29.84F
WALDEN         CLOUDY    55  28  35 S20G31    29.91F
$$

COZ006>008-011-230000-
...WEST CENTRAL VALLEYS...

CITY           SKY/WX    TMP DP  RH WIND       PRES   REMARKS
GRAND JUNCTION CLOUDY    73  26  17 S6        29.71F
MONTROSE       CLOUDY    71  30  21 S16       29.84S
EAGLE          CLOUDY    66  28  24 SW15G21   29.86F
RIFLE          CLOUDY    70  24  17 W3        29.76F
DELTA          NOT AVBL
NUCLA          NOT AVBL
$$

COZ017>023-064>068-230000-
...SOUTHWEST COLORADO...

CITY           SKY/WX    TMP DP  RH WIND       PRES   REMARKS
DURANGO        CLOUDY    70  22  16 SW23G32   29.91F
CORTEZ         SUNNY     74  25  16 SW23G32   29.86F
PAGOSA SPRINGS CLOUDY    66  19  17 S9G21     29.99F
TELLURIDE      CLOUDY    52  36  54 SE15      30.06F
WOLF CREEK PAS CLOUDY    39  25  56 SW22G48   30.17F
$$

COZ009-010-012-014-032>034-037-058>063-230000-
...CENTRAL COLORADO...

CITY           SKY/WX    TMP DP  RH WIND       PRES   REMARKS
ASPEN          CLOUDY    58  30  34 CALM      29.93F
BUENA VISTA    CLOUDY    61  32  33 NW10G17   29.94F
COPPER MTN     CLOUDY    45  28  53 S9G21     30.15F
BERTHOUD PASS  PTSUNNY   36  28  75 W12       30.20F
COTTONWOOD PAS CLOUDY    57  32  38 W3        30.05F
GUNNISON       CLOUDY    63  28  27 SW12G17   29.98R
KREMMLING      CLOUDY    59  30  33 N5        29.91F
LEADVILLE      CLOUDY    48  28  46 S18G26    30.03F
MONARCH PASS   LGT RAIN  37  28  70 SW44G52   30.27F
SALIDA         CLOUDY    64  32  29 SW18G24   30.01S
SUNLIGHT       CLOUDY    46  28  49 CALM      30.07F
WILKERSON PASS PTSUNNY   45  30  57 S8        30.14F
$$

COZ069>075-230000-
...SAN LUIS VALLEY/SANGRE DE CRISTO MOUNTAINS...

CITY           SKY/WX    TMP DP  RH WIND       PRES   REMARKS
ALAMOSA        CLOUDY    65  30  27 W22G32    29.97F
LA VETA PASS   PTSUNNY   46  32  57 SW16G26   30.11F
SAGUACHE       CLOUDY    61  28  29 NW13      30.00F
$$

COZ035-036-038>040-230000-
...NORTHERN COLORADO FRONT RANGE...

CITY           SKY/WX    TMP DP  RH WIND       PRES   REMARKS
DENVER INTL AP CLOUDY    74  31  20 E6        29.74F
DMNS CITY PARK   N/A     72  34  24 W9G18     29.74F
AURORA         PTSUNNY   73  32  21 SW17G33   29.77F
FRONT RANGE AP PTSUNNY   75  32  20 SE20G25   29.76
ERIE MUNI ARPT CLOUDY    75  30  19 CALM      29.74F
BOULDER MUN AP CLOUDY    73  32  21 CALM      29.74F
CENTENNIAL     CLOUDY    71  33  24 SW24G30   29.79S
BROOMFIELD     PTSUNNY   73  32  21 W6        29.78F
FORT COLLINS   CLOUDY    75  36  23 SE8       29.73F
LONGMONT       NOT AVBL
$$

COZ041-046-047-076>085-087-088-230000-
...PIKES PEAK/PALMER DIVIDE AND SOUTHERN FOOTHILLS...

CITY           SKY/WX    TMP DP  RH WIND       PRES   REMARKS
COLO. SPRINGS  PTSUNNY   73  32  22 S17       29.84F
A. F. ACADEMY  CLOUDY    71  31  23 S13       29.84F
ELLICOTT       NOT AVBL
FALCON         PTSUNNY   70  31  23 S21G28    29.89F
FORT CARSON    PTSUNNY   73  35  24 SE17      29.81F
LIMON          MOSUNNY   75  33  21 S29G37    29.79F
MONUMENT HILL  PTSUNNY   64  32  29 SW9       29.88F
TRINIDAD       PTSUNNY   75  35  23 S9        29.87F
$$

COZ042>045-048>051-090-091-230000-
...NORTHEAST COLORADO...

CITY           SKY/WX    TMP DP  RH WIND       PRES   REMARKS
GREELEY ARPT   CLOUDY    79  32  18 SE12      29.72F
AKRON          MOSUNNY   78  31  17 S9        29.73F
BURLINGTON     PTSUNNY   83  33  16 S23       29.76F
WRAY           MOSUNNY   85  30  14 S13G21    29.71F
STERLING       NOT AVBL
HOLYOKE        NOT AVBL
FORT MORGAN    NOT AVBL
$$

COZ086-089-092>099-230000-
...SOUTHEAST COLORADO...

CITY           SKY/WX    TMP DP  RH WIND       PRES   REMARKS
PUEBLO         PTSUNNY   78  39  24 SW20G29   29.76F
LA JUNTA       CLOUDY    73  49  42 S8        29.79R
LAMAR          TSTM      66  48  52 SW18G28   29.82R
SPRINGFIELD      N/A     77  38  24 SW26G43   29.85S
$$



USA.gov is the U.S. government's official web portal to all federal, state and local government web resources and services.